Погода в Большом Заборовье

Россия / Новгородская область     58°52′36″N   33°02′20″E
темп.,
°C
ветер,
м/с
пор.,
м/с
влажн.,
%
обл.,
%
осадки,
мм/ч
давл.,
гПа
погр.,
м
23 октября, сб
сб2300:00+5юз71573100 0.0 9901442
03:00+4юз6138595 0.1 991893
06:00+3юз5138995 0.0 992681
09:00+3юз4118737 0.0 994645
12:00+4зюз4878100 0.0 997985
15:00+4юз3887100 0.1 999638
18:00+3юз3797100 0.1 1001579
21:00+3з2593100 0.3 1003660
24 октября, вс
вс2400:00+2ссз4996100 0.5 1006537
03:00+1сз41096100 0.9 1009567
06:00+1ссз51195100 0.5 1012751
09:000ссз4108829 0.6 1015803
12:00+2ссз487636 0.2 10181110
15:00+3ссз487289 0.4 10211194
18:000сз388018 0.0 1023312
21:00−2зсз278950 0.0 1025201
25 октября, пн
пн2500:00−2з238857 0.0 102682
03:00−2юз268699 0.0 1026186
06:00−1ююз3982100 0.0 1025421
09:000ю51392100 0.6 1023567
12:00+1ююз51492100 1.1 1021641
15:00+4юз5138899 1.8 1019674
18:00+4юз51189100 0.1 1019879
21:00+4юз51289100 0.2 1018672
26 октября, вт
вт2600:00+2юз4129338 0.0 1018442
03:00+1юз41293100 0.0 1017423
06:00+1юз41292100 0.0 1016435
09:00+1юз4119298 0.0 1015456
12:00+4юз4108574 0.0 1015568
15:00+4юз4985100 0.0 1014641
18:00+3ююз41188100 0.0 1014458
21:00+4юз41287100 0.0 1012493
27 октября, ср
ср2700:00+4юз41390100 0.0 1011513
03:00+5юз41194100 0.0 1010527
06:00+5юз41195100 0.0 1009493
09:00+6юз41096100 0.2 1009488
12:00+6юз41094100 0.1 1009440
15:00+7з498495 0.3 1009815
18:00+5зюз311937 0.1 1011422
21:00+5з51186100 0.1 1011899